"Pseudo-MPEC" for CEJLJ82

Created 2026 Apr 17 11:35:12 UT using Find_Orb

Click here for an explanation of pseudo-MPECs

 
 Astrometry: 
     CEJLJ82*1C2026 04 17.22004711 14 08.960+33 45 47.20   ~4H65 19.00GVNEOCPG96
     CEJLJ82 1C2026 04 17.22681611 14 57.380+33 42 19.80   ~4H65       VNEOCPG96
     CEJLJ82 1C2026 04 17.23201411 15 34.535+33 39 39.20   ~4H65 18.21GVNEOCPG96
     CEJLJ82 1C2026 04 17.23721011 16 11.620+33 36 56.60   ~4H65       VNEOCPG96
     CEJLJ82 1C2026 04 17.25970811 18 51.901+33 25 03.14   ~4H6Z 18.74GVNEOCPI52
     CEJLJ82 1C2026 04 17.25982511 18 52.715+33 24 59.40   ~4H6Z 18.37GVNEOCPI52
     CEJLJ82 1C2026 04 17.25992511 18 53.428+33 24 56.20   ~4H6Z 18.39GVNEOCPI52
     CEJLJ82 1C2026 04 17.26002511 18 54.148+33 24 52.99   ~4H6Z 18.56GVNEOCPI52
     CEJLJ82 1C2026 04 17.34290811 28 40.645+32 38 09.46   ~4H8Z 18.28GVNEOCPI52
     CEJLJ82 1C2026 04 17.34392711 28 47.845+32 37 33.49   ~4H8Z 18.10GVNEOCPI52
     CEJLJ82 1C2026 04 17.34663111 29 06.896+32 35 57.70   ~4H8Z 17.86GVNEOCPI52
     CEJLJ82 1C2026 04 17.41901911 37 36.462+31 51 52.63   ~4HAK 17.97GVNEOCPI52
     CEJLJ82 1C2026 04 17.41913911 37 37.268+31 51 47.92   ~4HAK 17.86GVNEOCPI52
     CEJLJ82 1C2026 04 17.41925411 37 38.068+31 51 43.85   ~4HAK 17.83GVNEOCPI52
     CEJLJ82 1C2026 04 17.41936611 37 38.910+31 51 39.74   ~4HAK 18.06GVNEOCPI52

Station data:
(G96) Mt. Lemmon Survey  (N32.442729 W110.788720)  US/Arizona.  Observer E.
   J. Christensen. Measurers T. Beuden, V. F. Carvajal, D. Fay, J. B.
   Fazekas, D. C. Fuls, A. R. Gibbs, A. D. Grauer, H. Gröller, J. K. Hogan,
   R. A. Kowalski, S. M. Larson, G. J. Leonard, D. Rankin, R. L. Seaman, F.
   C. Shelly, K. W. Wierzchoś. 1.5-m reflector + 10K CCD.
(I52) Steward Observatory, Mt. Lemmon Station  (N32.442570 W110.788920)
   US/Arizona. Measurers T. Beuden, V. F. Carvajal, D. Fay, J. B. Fazekas, D.
   C. Fuls, A. R. Gibbs, A. D. Grauer, H. Gröller, J. K. Hogan, R. A.
   Kowalski, S. M. Larson, G. J. Leonard, D. Rankin, R. L. Seaman, F. C.
   Shelly, K. W. Wierzchoś. 1.0-m prime focus + CCD.

Orbital elements:  CEJLJ82
   Perihelion 2026 Mar 20.936609 +/- 0.164 TT = 22:28:43.0 (JD 2461120.436609)
Epoch 2026 Apr 17.0 TT = JDT 2461147.5   Earth MOID: 0.0028   Ma: 0.0501
M  12.656922972 +/- 0.25            (J2000 ecliptic)             AutoNEOCP
n   0.467676914 +/- 0.0065          Peri.  334.908177 +/- 0.25
a   1.643761336 +/- 0.0152          Node   198.744644 +/- 0.11
e   0.41513945 +/- 0.00544          Incl.    1.654377 +/- 0.010
P   2.107/769.748d         H 26.84  G  0.15   U  9.4
q 0.961371147 +/- 0.000188    Q 2.326151524 +/- 0.0305
From 15 observations 2026 Apr. 17 (4.8 hr); mean residual 0".19
Residuals in arcseconds: 
260417 G96  .05-  .03-    260417 I52  .09+  .02+    260417 I52  .21-  .03-    
260417 G96  .11-  .15+    260417 I52  .11+  .04+    260417 I52  .28+  .01+    
260417 G96  .03+  .29+    260417 I52  .22+  .05+    260417 I52  .20-  .19-    
260417 G96  .10-  .47-    260417 I52  .22-  .02-    260417 I52  .31-  .05+    
260417 I52  .31+  .01-    260417 I52  .03-  .03+    260417 I52  .39+  .15+    

Ephemerides (geocentric):
Date (UTC) HH   RA             Dec           delta  r     elong  mag " sig PA
---- --------  ------------   ------------  ------ ------ -----  --- --------
2026 04 17 12  11 48 09.521   +31 08 35.41  .00889 1.0096 130.4 18.4 11.0  60
2026 04 17 13  11 52 56.778   +30 42 54.81  .00892 1.0098 131.4 18.4 11.6  53
2026 04 17 14  11 57 39.489   +30 16 46.06  .00896 1.0099 132.3 18.4 12.3  46
2026 04 17 15  12 02 17.528   +29 50 12.04  .00899 1.0100 133.2 18.4 13.0  38
2026 04 17 16  12 06 50.791   +29 23 15.61  .00903 1.0102 134.1 18.4 13.9  30
2026 04 17 17  12 11 19.188   +28 55 59.62  .00908 1.0103 134.9 18.4 15.1  21
2026 04 17 18  12 15 42.651   +28 28 26.85  .00912 1.0105 135.8 18.3 16.7  13
2026 04 17 19  12 20 01.126   +28 00 40.05  .00917 1.0106 136.7 18.3 18.7   5
2026 04 17 20  12 24 14.578   +27 32 41.89  .00922 1.0107 137.5 18.3 21.1 179
2026 04 17 21  12 28 22.984   +27 04 34.94  .00928 1.0109 138.3 18.3 24.0 173
2026 04 17 22  12 32 26.337   +26 36 21.70  .00934 1.0110 139.1 18.3 27.2 168
2026 04 17 23  12 36 24.643   +26 08 04.58  .00940 1.0112 139.9 18.3 30.8 164
2026 04 18 00  12 40 17.917   +25 39 45.84  .00946 1.0113 140.7 18.3 34.7 160
2026 04 18 01  12 44 06.189   +25 11 27.67  .00953 1.0115 141.4 18.3 38.9 157
2026 04 18 02  12 47 49.496   +24 43 12.12  .00960 1.0116 142.2 18.3 43.3 155
2026 04 18 03  12 51 27.884   +24 15 01.13  .00967 1.0117 142.9 18.3 48.0 153
2026 04 18 04  12 55 01.408   +23 46 56.53  .00974 1.0119 143.6 18.3 52.8 151
2026 04 18 05  12 58 30.129   +23 19 00.00  .00982 1.0120 144.3 18.3 57.9 150
2026 04 18 06  13 01 54.115   +22 51 13.13  .00990 1.0122 144.9 18.3 63.1 148
2026 04 18 07  13 05 13.438   +22 23 37.37  .00998 1.0123 145.6 18.3 68.4 147
2026 04 18 08  13 08 28.176   +21 56 14.06  .01007 1.0124 146.2 18.3 73.9 146
2026 04 18 09  13 11 38.410   +21 29 04.45  .01015 1.0126 146.8 18.3 79.4 145
2026 04 18 10  13 14 44.224   +21 02 09.63  .01024 1.0127 147.4 18.3 85.0 145
2026 04 18 11  13 17 45.704   +20 35 30.63  .01033 1.0129 148.0 18.3 90.7 144
2026 04 18 12  13 20 42.940   +20 09 08.35  .01043 1.0130 148.5 18.3 96.5 143
2026 04 18 13  13 23 36.022   +19 43 03.61  .01052 1.0132 149.0 18.3  102 143
2026 04 18 14  13 26 25.041   +19 17 17.13  .01062 1.0133 149.5 18.3  108 142
2026 04 18 15  13 29 10.090   +18 51 49.52  .01072 1.0135 150.0 18.3  114 142
2026 04 18 16  13 31 51.260   +18 26 41.35  .01082 1.0136 150.5 18.3  120 142
2026 04 18 17  13 34 28.644   +18 01 53.08  .01093 1.0137 151.0 18.3  126 141
2026 04 18 18  13 37 02.334   +17 37 25.09  .01103 1.0139 151.4 18.3  131 141
2026 04 18 19  13 39 32.422   +17 13 17.73  .01114 1.0140 151.8 18.3  137 141
2026 04 18 20  13 41 58.997   +16 49 31.25  .01125 1.0142 152.2 18.4  143 141
2026 04 18 21  13 44 22.149   +16 26 05.85  .01136 1.0143 152.6 18.4  149 140
2026 04 18 22  13 46 41.968   +16 03 01.68  .01147 1.0145 153.0 18.4  154 140
2026 04 18 23  13 48 58.539   +15 40 18.83  .01158 1.0146 153.4 18.4  160 140
2026 04 19 00  13 51 11.949   +15 17 57.36  .01170 1.0148 153.7 18.4  166 140
2026 04 19 01  13 53 22.281   +14 55 57.27  .01182 1.0149 154.0 18.4  171 140
2026 04 19 02  13 55 29.619   +14 34 18.52  .01193 1.0150 154.3 18.4  176 139
2026 04 19 03  13 57 34.042   +14 13 01.05  .01205 1.0152 154.6 18.4  182 139
2026 04 19 04  13 59 35.630   +13 52 04.76  .01217 1.0153 154.9 18.4  187 139
2026 04 19 05  14 01 34.460   +13 31 29.52  .01230 1.0155 155.2 18.5  192 139
2026 04 19 06  14 03 30.608   +13 11 15.17  .01242 1.0156 155.4 18.5  198 139
2026 04 19 07  14 05 24.147   +12 51 21.54  .01254 1.0158 155.7 18.5  203 139
2026 04 19 08  14 07 15.148   +12 31 48.41  .01267 1.0159 155.9 18.5  208 139
2026 04 19 09  14 09 03.682   +12 12 35.58  .01280 1.0161 156.1 18.5  213 139
2026 04 19 10  14 10 49.817   +11 53 42.81  .01292 1.0162 156.3 18.5  217 139
2026 04 19 11  14 12 33.619   +11 35 09.84  .01305 1.0164 156.5 18.6  222 139